Time,TemperatureF,DewpointF,PressureIn,WindDirection,WindDirectionDegrees,WindSpeedMPH,WindSpeedGustMPH,Humidity,HourlyPrecipIn,Conditions,Clouds,dailyrainin,SoftwareType,DateUTC
2013-11-15 00:11:00,55.0,27.0,28.68,WNW,297,3.0,11.0,34,0.00,,,0.00,,2013-11-15 08:11:00,
2013-11-15 00:21:00,54.0,28.0,28.68,North,5,2.0,6.0,36,0.00,,,0.00,,2013-11-15 08:21:00,
2013-11-15 00:42:00,54.0,28.0,28.68,North,360,2.0,6.0,37,0.00,,,0.00,,2013-11-15 08:42:00,
2013-11-15 00:52:00,54.0,29.0,28.67,North,5,2.0,7.0,38,0.00,,,0.00,,2013-11-15 08:52:00,
2013-11-15 01:22:00,53.0,29.0,28.67,NNE,15,3.0,7.0,40,0.00,,,0.00,,2013-11-15 09:22:00,
2013-11-15 01:43:00,53.0,30.0,28.66,NNE,13,3.0,8.0,41,0.00,,,0.00,,2013-11-15 09:43:00,
2013-11-15 01:53:00,52.0,30.0,28.66,North,360,3.0,9.0,42,0.00,,,0.00,,2013-11-15 09:53:00,
2013-11-15 02:12:00,52.0,31.0,28.66,North,5,2.0,8.0,44,0.00,,,0.00,,2013-11-15 10:12:00,
2013-11-15 02:22:00,52.0,31.0,28.66,NNE,17,1.0,9.0,45,0.00,,,0.00,,2013-11-15 10:22:00,
2013-11-15 02:42:00,51.0,31.0,28.66,North,10,1.0,4.0,46,0.00,,,0.00,,2013-11-15 10:42:00,
2013-11-15 02:52:00,51.0,31.0,28.66,WNW,301,0.0,2.0,46,0.00,,,0.00,,2013-11-15 10:52:00,
2013-11-15 03:12:00,50.0,31.0,28.66,WNW,292,0.0,1.0,48,0.00,,,0.00,,2013-11-15 11:12:00,
2013-11-15 03:22:00,49.0,32.0,28.66,WNW,292,0.0,1.0,51,0.00,,,0.00,,2013-11-15 11:22:00,
2013-11-15 03:42:00,49.0,32.0,28.65,NW,318,0.0,4.0,52,0.00,,,0.00,,2013-11-15 11:42:00,
2013-11-15 03:52:00,48.0,31.0,28.65,NW,318,0.0,0.0,52,0.00,,,0.00,,2013-11-15 11:52:00,
2013-11-15 04:11:00,47.0,31.0,28.65,NW,318,0.0,0.0,54,0.00,,,0.00,,2013-11-15 12:11:00,
2013-11-15 04:21:00,46.0,31.0,28.65,NW,318,0.0,0.0,56,0.00,,,0.00,,2013-11-15 12:21:00,
2013-11-15 04:41:00,45.0,31.0,28.65,NW,318,0.0,0.0,57,0.00,,,0.00,,2013-11-15 12:41:00,
2013-11-15 04:52:00,44.0,30.0,28.64,NW,318,0.0,0.0,58,0.00,,,0.00,,2013-11-15 12:52:00,
2013-11-15 05:11:00,43.0,30.0,28.64,NW,312,0.0,0.0,59,0.00,,,0.00,,2013-11-15 13:11:00,
2013-11-15 05:21:00,43.0,30.0,28.64,NW,312,0.0,0.0,61,0.00,,,0.00,,2013-11-15 13:21:00,
2013-11-15 05:42:00,42.0,30.0,28.64,NW,312,0.0,2.0,61,0.00,,,0.00,,2013-11-15 13:42:00,
2013-11-15 05:52:00,41.0,29.0,28.64,NW,312,0.0,1.0,62,0.00,,,0.00,,2013-11-15 13:52:00,
2013-11-15 06:11:00,40.0,28.0,28.64,NW,312,0.0,0.0,63,0.00,,,0.00,,2013-11-15 14:11:00,
2013-11-15 06:21:00,40.0,29.0,28.64,NW,312,0.0,1.0,65,0.00,,,0.00,,2013-11-15 14:21:00,
2013-11-15 06:42:00,40.0,29.0,28.64,NW,312,0.0,2.0,65,0.00,,,0.00,,2013-11-15 14:42:00,
2013-11-15 06:52:00,39.0,28.0,28.65,NW,312,0.0,1.0,65,0.00,,,0.00,,2013-11-15 14:52:00,
2013-11-15 07:11:00,39.0,29.0,28.65,NW,313,0.0,1.0,68,0.00,,,0.00,,2013-11-15 15:11:00,
2013-11-15 07:21:00,39.0,29.0,28.65,NW,313,0.0,0.0,68,0.00,,,0.00,,2013-11-15 15:21:00,
2013-11-15 07:43:00,40.0,30.0,28.65,ESE,109,0.0,0.0,67,0.00,,,0.00,,2013-11-15 15:43:00,
2013-11-15 07:53:00,40.0,30.0,28.65,West,277,0.0,2.0,67,0.00,,,0.00,,2013-11-15 15:53:00,
2013-11-15 08:23:00,41.0,31.0,28.65,West,273,0.0,2.0,67,0.00,,,0.00,,2013-11-15 16:23:00,
2013-11-15 08:43:00,41.0,30.0,28.65,SSW,212,0.0,3.0,65,0.00,,,0.00,,2013-11-15 16:43:00,
2013-11-15 08:53:00,42.0,31.0,28.65,South,191,0.0,4.0,66,0.00,,,0.00,,2013-11-15 16:53:00,
2013-11-15 09:22:00,48.0,35.0,28.64,SSE,160,0.0,1.0,60,0.00,,,0.00,,2013-11-15 17:22:00,
2013-11-15 09:42:00,50.0,36.0,28.65,South,179,0.0,2.0,58,0.00,,,0.00,,2013-11-15 17:42:00,
2013-11-15 09:52:00,52.0,35.0,28.65,SW,215,0.0,3.0,53,0.00,,,0.00,,2013-11-15 17:52:00,
2013-11-15 10:12:00,54.0,35.0,28.65,SSE,165,0.0,2.0,49,0.00,,,0.00,,2013-11-15 18:12:00,
2013-11-15 10:22:00,57.0,36.0,28.65,SW,236,1.0,3.0,45,0.00,,,0.00,,2013-11-15 18:22:00,
2013-11-15 10:42:00,58.0,34.0,28.64,WSW,244,0.0,4.0,41,0.00,,,0.00,,2013-11-15 18:42:00,
2013-11-15 10:52:00,60.0,34.0,28.64,SSW,194,1.0,4.0,38,0.00,,,0.00,,2013-11-15 18:52:00,
2013-11-15 11:11:00,62.0,32.0,28.63,WNW,300,2.0,5.0,32,0.00,,,0.00,,2013-11-15 19:11:00,
2013-11-15 11:21:00,64.0,30.0,28.62,North,5,2.0,8.0,28,0.00,,,0.00,,2013-11-15 19:21:00,
2013-11-15 11:42:00,65.0,28.0,28.62,NNE,28,3.0,9.0,25,0.00,,,0.00,,2013-11-15 19:42:00,
2013-11-15 11:52:00,65.0,27.0,28.61,NNE,27,1.0,9.0,24,0.00,,,0.00,,2013-11-15 19:52:00,
2013-11-15 12:11:00,66.0,28.0,28.60,NW,312,3.0,6.0,24,0.00,,,0.00,,2013-11-15 20:11:00,
2013-11-15 12:22:00,66.0,28.0,28.60,NW,312,3.0,6.0,24,0.00,,,0.00,,2013-11-15 20:22:00,
2013-11-15 12:31:00,66.0,28.0,28.60,NW,312,3.0,6.0,24,0.00,,,0.00,,2013-11-15 20:31:00,
2013-11-15 12:42:00,66.0,28.0,28.60,NW,312,3.0,6.0,24,0.00,,,0.00,,2013-11-15 20:42:00,
2013-11-15 12:52:00,69.0,25.0,28.58,NNW,344,1.0,8.0,19,0.00,,,0.00,,2013-11-15 20:52:00,
2013-11-15 13:12:00,69.0,25.0,28.57,North,11,1.0,4.0,19,0.00,,,0.00,,2013-11-15 21:12:00,
2013-11-15 13:21:00,68.0,24.0,28.56,NE,46,1.0,6.0,19,0.00,,,0.00,,2013-11-15 21:21:00,
2013-11-15 13:43:00,67.0,23.0,28.56,NNE,13,3.0,8.0,19,0.00,,,0.00,,2013-11-15 21:43:00,
2013-11-15 13:54:00,68.0,23.0,28.56,ENE,57,2.0,6.0,18,0.00,,,0.00,,2013-11-15 21:54:00,
2013-11-15 14:14:00,67.0,23.0,28.56,NE,50,2.0,6.0,19,0.00,,,0.00,,2013-11-15 22:14:00,
2013-11-15 14:23:00,66.0,23.0,28.55,NNW,331,1.0,8.0,19,0.00,,,0.00,,2013-11-15 22:23:00,
2013-11-15 14:43:00,67.0,22.0,28.55,NE,51,1.0,5.0,18,0.00,,,0.00,,2013-11-15 22:43:00,
2013-11-15 14:53:00,67.0,23.0,28.54,SE,134,0.0,4.0,19,0.00,,,0.00,,2013-11-15 22:53:00,
2013-11-15 15:02:00,67.0,23.0,28.54,SE,134,0.0,4.0,19,0.00,,,0.00,,2013-11-15 23:02:00,
2013-11-15 15:11:00,67.0,23.0,28.54,SE,134,0.0,4.0,19,0.00,,,0.00,,2013-11-15 23:11:00,
2013-11-15 15:22:00,67.0,21.0,28.53,NW,306,1.0,5.0,17,0.00,,,0.00,,2013-11-15 23:22:00,
2013-11-15 15:43:00,67.0,19.0,28.53,NW,316,1.0,7.0,16,0.00,,,0.00,,2013-11-15 23:43:00,
2013-11-15 15:52:00,67.0,21.0,28.54,NW,310,0.0,2.0,17,0.00,,,0.00,,2013-11-15 23:52:00,
2013-11-15 16:11:00,66.0,21.0,28.54,North,9,1.0,5.0,18,0.00,,,0.00,,2013-11-16 00:11:00,
2013-11-15 16:21:00,65.0,23.0,28.54,WNW,303,0.0,4.0,20,0.00,,,0.00,,2013-11-16 00:21:00,
2013-11-15 16:42:00,65.0,24.0,28.54,NW,315,0.0,3.0,21,0.00,,,0.00,,2013-11-16 00:42:00,
2013-11-15 16:52:00,64.0,24.0,28.54,NW,310,0.0,3.0,22,0.00,,,0.00,,2013-11-16 00:52:00,
2013-11-15 17:11:00,63.0,24.0,28.53,ENE,61,0.0,1.0,22,0.00,,,0.00,,2013-11-16 01:11:00,
2013-11-15 17:21:00,61.0,24.0,28.54,ENE,61,0.0,0.0,24,0.00,,,0.00,,2013-11-16 01:21:00,
2013-11-15 17:42:00,59.0,25.0,28.54,ENE,61,0.0,1.0,27,0.00,,,0.00,,2013-11-16 01:42:00,
2013-11-15 17:52:00,57.0,27.0,28.54,ENE,61,0.0,1.0,31,0.00,,,0.00,,2013-11-16 01:52:00,
2013-11-15 18:11:00,56.0,26.0,28.55,NNW,337,0.0,0.0,31,0.00,,,0.00,,2013-11-16 02:11:00,
2013-11-15 18:22:00,55.0,26.0,28.55,NNW,337,0.0,0.0,32,0.00,,,0.00,,2013-11-16 02:22:00,
2013-11-15 18:42:00,54.0,26.0,28.56,NNW,337,0.0,1.0,34,0.00,,,0.00,,2013-11-16 02:42:00,
2013-11-15 18:52:00,53.0,27.0,28.56,NNW,338,0.0,1.0,36,0.00,,,0.00,,2013-11-16 02:52:00,
2013-11-15 19:11:00,52.0,27.0,28.57,NNW,338,0.0,0.0,38,0.00,,,0.00,,2013-11-16 03:11:00,
2013-11-15 19:22:00,52.0,30.0,28.57,NNW,338,0.0,2.0,42,0.00,,,0.00,,2013-11-16 03:22:00,
2013-11-15 19:44:00,52.0,31.0,28.57,NNW,338,0.0,0.0,44,0.00,,,0.00,,2013-11-16 03:44:00,
2013-11-15 19:55:00,51.0,31.0,28.57,NNW,338,0.0,0.0,47,0.00,,,0.00,,2013-11-16 03:55:00,
2013-11-15 20:23:00,49.0,30.0,28.56,North,350,0.0,2.0,48,0.00,,,0.00,,2013-11-16 04:23:00,
2013-11-15 20:43:00,48.0,31.0,28.57,North,350,0.0,0.0,51,0.00,,,0.00,,2013-11-16 04:43:00,
2013-11-15 20:53:00,47.0,29.0,28.58,North,350,0.0,1.0,50,0.00,,,0.00,,2013-11-16 04:53:00,
2013-11-15 21:13:00,46.0,30.0,28.57,North,350,0.0,0.0,54,0.00,,,0.00,,2013-11-16 05:13:00,
2013-11-15 21:23:00,46.0,31.0,28.57,North,350,0.0,0.0,55,0.00,,,0.00,,2013-11-16 05:23:00,
2013-11-15 21:43:00,45.0,30.0,28.58,North,350,0.0,2.0,56,0.00,,,0.00,,2013-11-16 05:43:00,
2013-11-15 21:52:00,44.0,30.0,28.58,North,350,0.0,1.0,58,0.00,,,0.00,,2013-11-16 05:52:00,
2013-11-15 22:13:00,45.0,31.0,28.56,North,350,0.0,0.0,57,0.00,,,0.00,,2013-11-16 06:13:00,
2013-11-15 22:22:00,44.0,31.0,28.57,North,350,0.0,0.0,59,0.00,,,0.00,,2013-11-16 06:22:00,
2013-11-15 22:42:00,43.0,30.0,28.57,North,350,0.0,1.0,60,0.00,,,0.00,,2013-11-16 06:42:00,
2013-11-15 22:52:00,42.0,30.0,28.57,North,350,0.0,1.0,61,0.00,,,0.00,,2013-11-16 06:52:00,
2013-11-15 23:11:00,42.0,31.0,28.57,North,350,0.0,0.0,64,0.00,,,0.00,,2013-11-16 07:11:00,
2013-11-15 23:22:00,42.0,31.0,28.58,North,350,0.0,0.0,64,0.00,,,0.00,,2013-11-16 07:22:00,
2013-11-15 23:42:00,42.0,30.0,28.58,North,350,0.0,0.0,62,0.00,,,0.00,,2013-11-16 07:42:00,
2013-11-15 23:52:00,41.0,30.0,28.59,North,350,0.0,0.0,64,0.00,,,0.00,,2013-11-16 07:52:00,